Wetbulb
71.23 71.18 71.32 70.83 70.85 70.77 71.06 71.00 70.12 66.88 66.80 66.30 66.43 66.92 66.54 65.90 66.01 65.66 65.55 65.76 66.22 65.51
71.05 71.14 71.14 71.48 71.52 70.68 71.15 69.99 66.83 66.09 66.08 65.08 65.68 65.15 64.49 63.94 63.80 64.31 64.20 64.24 64.35 64.00
71.12 71.71 71.86 71.53 70.81 70.41 69.64 67.25 65.08 65.73 65.39 64.47 64.27 63.94 63.30 63.43 63.21 63.96 64.18 64.51 65.08 65.30
71.33 71.96 71.91 70.89 69.66 69.10 66.00 64.91 65.17 65.39 64.80 64.64 64.66 63.69 63.65 63.52 63.48 63.56 64.69 64.93 64.53 64.40
71.78 71.40 70.64 68.19 67.52 66.19 64.93 64.60 65.17 64.71 64.68 65.08 64.55 63.78 64.42 63.93 62.97 63.94 63.98 64.18 64.20 63.83
71.38 69.41 68.54 67.06 65.74 65.32 64.58 64.33 64.71 64.51 64.53 64.86 64.11 63.54 63.98 63.65 62.75 63.45 64.02 63.96 64.00 64.20
70.93 68.98 66.61 66.28 65.42 64.27 64.37 63.97 64.39 64.58 64.71 64.69 64.00 63.36 63.21 62.49 61.88 61.51 61.46 61.59 62.93 64.29
71.43 69.87 66.49 64.97 64.02 63.58 63.88 64.20 64.86 64.60 64.31 64.22 63.92 63.75 63.30 63.10 62.56 61.79 61.27 60.79 61.02 60.26
67.90 66.48 65.27 65.02 64.06 62.94 62.98 63.97 64.06 63.95 64.20 63.63 64.10 63.71 63.96 62.38 61.10 61.25 61.09 60.96 60.49 59.72
65.49 64.92 64.63 64.64 63.97 63.32 62.82 62.92 63.33 63.53 63.80 63.16 62.55 63.31 63.41 62.51 60.06 59.91 59.34 59.76 60.81 60.51
64.82 64.88 64.95 64.09 64.06 64.08 63.37 62.21 62.69 62.93 63.35 63.38 62.58 61.70 61.92 63.28 60.79 59.98 59.79 59.88 59.98 58.34
65.66 62.76 63.73 63.83 63.53 63.81 62.54 62.38 62.00 62.76 62.73 62.44 62.63 59.70 60.13 61.48 60.33 59.98 59.58 59.19 57.15 57.07
64.62 64.72 64.19 64.37 63.96 64.20 63.39 63.41 62.95 62.53 62.67 61.58 62.20 59.04 58.59 59.93 60.41 59.40 58.39 56.86 56.69 54.52
63.97 63.97 64.17 64.60 64.42 63.82 63.39 63.27 62.02 61.73 61.41 61.51 61.92 61.79 57.43 57.61 60.12 59.64 57.17 54.07 53.60 52.80
MSLP
1013.77 1014.09 1014.21 1014.42 1014.67 1014.92 1015.12 1015.32 1015.57 1015.78 1015.90 1016.11 1016.21 1016.23 1016.16 1016.39 1016.57 1016.58 1016.66 1016.67 1016.71 1016.92
1013.49 1013.67 1013.83 1014.07 1014.31 1014.62 1014.89 1015.20 1015.47 1015.73 1015.94 1016.09 1016.25 1016.34 1016.54 1016.75 1016.83 1016.92 1016.95 1016.98 1017.04 1017.10
1013.14 1013.24 1013.39 1013.77 1014.22 1014.60 1014.95 1015.26 1015.63 1016.04 1016.28 1016.41 1016.47 1016.59 1016.78 1016.96 1017.05 1017.11 1017.24 1017.32 1017.36 1017.39
1013.08 1013.15 1013.43 1013.71 1014.19 1014.51 1014.80 1015.10 1015.48 1015.87 1016.23 1016.48 1016.66 1016.94 1017.22 1017.37 1017.41 1017.38 1017.42 1017.47 1017.55 1017.66
1012.85 1013.12 1013.41 1013.70 1014.01 1014.32 1014.66 1015.24 1015.72 1016.16 1016.42 1016.63 1016.76 1016.80 1016.93 1017.15 1017.31 1017.41 1017.43 1017.56 1017.70 1017.83
1012.67 1013.28 1013.75 1014.12 1014.47 1014.65 1014.98 1015.36 1015.74 1016.11 1016.49 1016.68 1016.69 1016.87 1016.85 1016.80 1016.99 1017.21 1017.23 1017.30 1017.48 1017.63
1011.29 1011.89 1012.66 1013.53 1014.46 1014.77 1015.16 1015.41 1015.67 1015.93 1016.04 1016.21 1016.50 1016.75 1016.90 1017.12 1017.28 1017.22 1017.32 1017.45 1017.35 1017.39
1011.67 1012.23 1012.54 1012.62 1013.28 1014.38 1015.09 1015.27 1015.41 1015.64 1016.01 1016.34 1016.53 1016.72 1016.72 1016.83 1017.16 1017.38 1017.35 1017.36 1017.28 1017.19
1012.01 1012.57 1013.28 1013.85 1013.51 1013.98 1014.87 1015.36 1015.78 1015.96 1016.05 1016.25 1016.17 1016.11 1016.45 1016.82 1017.00 1017.24 1017.18 1017.29 1017.66 1017.87
1012.18 1012.88 1013.71 1014.00 1014.46 1013.78 1015.47 1015.57 1015.66 1015.78 1015.95 1016.18 1016.31 1016.28 1016.27 1016.39 1016.78 1017.08 1017.18 1017.04 1017.02 1016.98
1011.69 1012.33 1012.99 1013.24 1013.61 1013.62 1014.79 1015.09 1015.37 1015.50 1015.78 1015.97 1016.16 1016.35 1016.50 1016.47 1016.70 1017.02 1017.10 1017.07 1017.12 1017.39
1009.00 1010.09 1011.36 1012.85 1012.26 1012.70 1013.39 1014.20 1014.63 1015.06 1015.47 1015.74 1015.86 1016.24 1016.41 1016.61 1016.69 1016.96 1017.08 1016.88 1016.84 1017.09
1010.52 1010.53 1010.74 1011.46 1011.45 1011.92 1013.04 1013.78 1013.38 1014.67 1014.98 1015.31 1015.55 1015.94 1016.35 1016.35 1016.56 1016.68 1017.01 1017.00 1016.82 1016.80
1009.94 1009.79 1009.76 1009.82 1010.31 1010.94 1012.13 1012.75 1012.80 1013.51 1014.51 1015.22 1015.46 1015.73 1016.03 1015.94 1016.04 1016.29 1016.82 1016.87 1016.80 1016.64
Wind_Speed
6 4 4 5 4 4 4 4 5 5 4 4 3 3 3 2 3 4 3 4 3 2
6 7 6 6 4 4 4 4 5 5 5 4 4 4 3 2 2 2 2 3 2 1
8 7 6 6 6 5 5 5 5 4 4 4 3 3 3 2 1 3 1 2 3 2
7 7 6 6 5 6 5 7 7 6 5 5 4 3 2 2 2 2 2 2 2 2
5 5 6 6 7 8 8 6 6 5 5 4 4 4 4 4 3 3 3 2 2 2
5 5 4 4 4 6 6 5 6 6 6 5 4 4 4 4 4 3 4 3 3 3
11 11 9 7 5 5 5 6 6 6 6 6 5 5 4 3 3 3 3 2 3 3
5 4 5 9 10 7 5 6 7 6 5 4 5 5 6 6 5 4 4 3 3 3
6 5 1 3 4 7 6 5 4 4 5 5 5 9 11 7 4 4 4 4 3 4
10 8 5 2 1 6 2 2 4 4 5 5 4 7 12 11 5 4 4 4 4 3
7 5 4 8 7 6 4 5 4 4 5 4 4 8 9 11 5 3 3 3 4 4
13 15 15 11 10 7 7 6 5 4 5 5 4 7 9 7 4 3 3 3 3 3
7 10 14 12 13 10 7 7 6 5 4 5 5 7 9 7 3 2 2 3 4 4
5 7 12 14 12 13 11 10 9 6 3 4 4 5 9 11 5 3 2 2 2 3
Wind_Direction
199 190 188 180 177 172 174 164 155 134 130 125 118 109 89 98 100 93 88 95 106 108
192 185 184 185 177 175 160 153 148 150 142 128 113 104 86 73 71 71 70 76 76 90
191 188 184 166 173 163 141 137 145 142 128 124 129 122 121 124 115 121 86 66 70 60
194 189 170 172 160 165 150 160 162 160 156 158 144 123 114 96 101 94 104 110 81 59
186 178 175 169 172 162 164 163 155 153 167 169 157 155 144 136 125 166 156 140 98 101
181 170 180 184 168 165 150 153 153 163 176 179 171 164 171 166 154 143 167 167 186 195
182 175 171 165 178 165 164 160 175 186 183 179 178 179 170 156 162 162 173 188 208 212
185 180 158 162 167 159 172 190 189 172 183 182 180 192 182 178 181 183 196 214 237 226
83 94 32 304 181 153 175 191 177 189 176 190 209 188 179 174 172 182 189 206 255 306
97 86 30 348 276 100 270 140 179 188 184 200 223 184 174 166 168 179 199 195 224 236
99 92 185 170 185 154 200 190 186 192 199 194 217 198 178 166 160 173 194 214 221 283
170 200 215 202 180 164 169 189 181 187 190 197 209 215 196 163 157 180 239 230 220 283
267 222 191 187 177 172 181 204 160 199 198 204 207 219 204 163 166 181 252 287 268 269
283 244 222 207 185 169 188 180 163 156 172 236 223 220 199 173 169 174 208 235 263 275